Regional Weather Roundup
Issued by NWS

Home | Current Version | Previous Version | Graphics & Text | Print | Product List | Glossary On
Versions: 1 2 3 4 5 6 7 8 9 10 11 12 13 14 15 16 17 18 19 20 21 22 23 24 25 26 27 28 29 30 31 32 33 34 35 36 37 38 39 40 41 42 43 44 45 46 47 48 49 50
000
ASUS45 KTFX 211804
RWRMT
MONTANA HOURLY WEATHER ROUNDUP
NATIONAL WEATHER SERVICE GREAT FALLS MT
1204 PM MDT THU AUG 21 2014

NOTE: "FAIR" INDICATES FEW OR NO CLOUDS BELOW 12000 FEET WITH NO
SIGNIFICANT WEATHER AND/OR OBSTRUCTIONS TO VISIBILITY.

* THESE STATIONS ARE NOT UNDER NWS QUALITY CONTROL. THEY DO NOT
   REPORT WEATHER SUCH AS PRECIPITATION OR FOG.

MTZ001>007-043-211900-
WEST OF THE DIVIDE
CITY           SKY/WX    TMP DP  RH WIND       PRES   REMARKS
KALISPELL      CLOUDY    59  52  78 N10       30.07R
MISSOULA       SUNNY     70  50  49 SW7       30.03S
BUTTE          PTCLDY    61  48  62 E3        30.11F
MULLAN PASS    PTSUNNY   54  48  80 CALM      30.12R
* ESSEX        N/A       57  49  75 SE1G6      N/A
* LINCOLN      N/A       60  49  67 NE9G14     N/A
* LOOKOUT PASS N/A       61  50  67 NW6        N/A
* POLSON       N/A       60  56  87 NW2        N/A
* RONAN APT    PTCLDY    63  54  73 NW11G16    N/A
* SEELEY LAKE  N/A       63  51  65 NE4G9      N/A
* THOMP F APT  SUNNY     56  50  80 S4         N/A
* YAAK HILL    N/A       63  55  75 N/A        N/A
$$

MTZ008-052>055-211900-
SOUTHWEST MONTANA
CITY           SKY/WX    TMP DP  RH WIND       PRES   REMARKS
BOZEMAN        LGT RAIN  55  54  96 W7        30.10R
DILLON         PTSUNNY   61  50  67 CALM      30.10S
W YELLOWSTONE  CLOUDY    55  46  72 S13       30.16S
* THREE FORKS  CLOUDY    55  36  49 N/A        N/A
* BOULDER HILL N/A       54  43  67 NE9        N/A
* MONIDA PASS  N/A       54  47  77 SE9        N/A
* RAYNOLDS PAS N/A       52  35  52 SE11G16    N/A
* WHITEHALL    N/A       56  54  93 N/A        N/A
* WISE RIVER   N/A       62  44  52 SE5        N/A
$$

MTZ009>010-012-014-046-048-049-054-211900-
EAST SLOPES AND CENTRAL MONTANA
CITY           SKY/WX    TMP DP  RH WIND       PRES   REMARKS
CUT BANK       LGT RAIN  52  50  93 NW9       30.13R VSB 3
GREAT FALLS    CLOUDY    57  52  83 N6        30.09S
HELENA         CLOUDY    63  50  63 NW5       30.08S
MALMSTROM AFB  CLOUDY    57  52  83 VRB5G40   30.10S
* CONRAD       PTCLDY    55  54  96 NW6        N/A
* DEARBORN     N/A       58  52  81 VRB4G9     N/A
* EAST GLACIER N/A       49  46  89 E13G18     N/A
* MONARCH      N/A       51  47  86 NW9        N/A
* PENDROY      N/A       52  50  93 N9         N/A
* ROGERS PASS  N/A       49  48  96 S6         N/A
* SAINT MARY   N/A       49  48  96 N5G10      N/A
* SWEET GRASS  N/A       54  54 100 NE12G19    N/A
$$

MTZ011-013-016-021-035-040-045-047-050-051-211900-
NORTH CENTRAL MONTANA
CITY           SKY/WX    TMP DP  RH WIND       PRES   REMARKS
HAVRE          LGT RAIN  63  55  75 NW8       30.04R
LEWISTOWN      CLOUDY    61  52  72 W7        30.09S
* CHESTER      N/A       58  50  75 NE15G21    N/A
* DENTON       N/A       58  56  93 NW8        N/A
* GEYSER       N/A       58  52  81 W13        N/A
* JUDITH GAP   N/A       57  53  87 VRB12G17    N/A
$$

MTZ017>020-022>027-061-062-211900-
NORTHEAST MONTANA
CITY           SKY/WX    TMP DP  RH WIND       PRES   REMARKS
GLASGOW        CLOUDY    72  57  59 VRB7      29.98S
GLENDIVE       PTSUNNY   72  63  73 SW6       29.97S
JORDAN         CLOUDY    70  57  64 N10       30.00R
SIDNEY         PTSUNNY   70  63  79 N13       29.96R
WOLF POINT     CLOUDY    64  61  90 NE7       29.98S
* BEAVER HILL  N/A       68  61  78 W2         N/A
* CIRCLE       N/A       66  60  81 NE6G12     N/A
* LINDSAY DVD  N/A       67  59  76 W11        N/A
* SACO         N/A       69  58  68 N8         N/A
$$

MTZ028>042-056>058-211900-
SOUTHCENTRAL AND SOUTHEAST MONTANA
CITY           SKY/WX    TMP DP  RH WIND       PRES   REMARKS
BAKER          PTSUNNY   72  61  68 W9        29.99S
BILLINGS       CLOUDY    64  54  70 E8        30.05S
LIVINGSTON     CLOUDY    63  52  68 E5        30.07S
MILES CITY     PTSUNNY   70  55  59 W5        29.99F
* LAUREL APT   CLOUDY    66  54  65 N/A        N/A
* ROUNDUP APT  CLOUDY    63  52  68 NW10       N/A
* ALZADA       N/A       77  51  40 N1G6       N/A
* HYSHAM       N/A       67  51  57 N3G8       N/A
* LAME DEER    N/A       65  53  65 NE4        N/A
* REED POINT   N/A       67  52  59 NE6        N/A
* ROSCOE HILL  N/A       58  50  75 NE3        N/A
$$

REGIONAL REPORTS...DAKOTAS
CITY           SKY/WX    TMP DP  RH WIND       PRES   REMARKS
WILLISTON      CLOUDY    66  59  78 N8        29.95R
DICKINSON      SUNNY     73  61  66 VRB6      29.92S
BEACH          N/A       68  64  87 N5        29.97S
CROSBY         CLOUDY    66  66 100 N14       29.94S
TIOGA          CLOUDY    64  64 100 NW13      29.96S
WATFORD CITY   SUNNY     73  59  62 NW13      29.92R
BISMARCK       SUNNY     79  64  60 N13G18    29.86S
GRAND FORKS    CLOUDY    75  68  79 CALM      29.77S
FARGO          PTSUNNY   77  70  79 E8        29.75F
BUFFALO SD     SUNNY     79  55  44 VRB6      29.90S
RAPID CITY     SUNNY     79  57  47 VRB5      29.97F
$$

REGIONAL REPORTS...WYOMING/IDAHO/WASHINGTON
CITY           SKY/WX    TMP DP  RH WIND       PRES   REMARKS
GILLETTE       PTSUNNY   73  52  48 NE7       30.03S
SHERIDAN       PTCLDY    73  52  48 VRB7      30.04S
CODY           CLOUDY    59  52  78 CALM      30.10S
YELLOWSTONE LA CLOUDY    48  46  93 CALM      30.24S
SALMON         SUNNY     64  52  65 CALM      30.05F
MULLAN PASS    PTSUNNY   54  48  80 CALM      30.12S
SAND POINT     SUNNY     70  54  57 E7        30.00F
SPOKANE        PTSUNNY   66  48  52 SE3       30.00S
$$

REGIONAL REPORTS...SASKATCHEWAN
CITY           SKY/WX    TMP DP  RH WIND       PRES   REMARKS
SWIFT CURRENT  CLOUDY    63  55  75 NE8       30.04R

$$



USA.gov is the U.S. government's official web portal to all federal, state and local government web resources and services.